Wind_Speed
5 3 4 5 5 6 6 6 7 7 8 8 8 8 8 7 6 6 7 6 6 5 5 6 6 5 4 4 4 4 3 3 3 3 3 3 2 2 2 2 1 1 1
5 4 5 5 5 6 6 6 5 6 6 6 6 7 7 7 6 6 6 6 4 4 4 5 5 5 4 4 4 3 2 2 2 2 2 2 2 2 1 1 1 1 1
6 6 6 6 6 5 5 5 6 6 6 6 6 7 7 6 5 5 6 5 5 5 4 4 5 4 4 3 3 3 2 1 1 1 1 1 1 1 1 1 1 1 2
6 6 6 6 5 5 5 6 6 6 5 5 5 6 6 6 5 6 6 5 5 4 3 4 4 4 4 3 3 2 2 1 1 1 1 1 1 2 2 2 2 2 2
6 6 7 6 6 5 5 6 7 6 5 4 5 5 5 5 5 5 5 5 4 4 3 3 3 3 3 3 2 2 2 2 2 2 2 1 2 2 2 2 2 2 2
6 7 8 7 7 6 6 6 6 7 6 5 4 4 4 4 4 4 3 3 3 3 3 3 3 3 3 2 2 2 2 2 2 2 2 2 2 2 3 3 2 2 2
7 8 8 8 8 8 6 6 6 6 6 4 4 4 4 4 4 3 3 2 3 3 3 2 2 2 2 2 2 2 3 3 2 3 3 2 2 2 3 3 3 2 2
7 7 7 8 7 7 6 6 5 5 4 4 3 3 4 4 3 3 2 2 2 2 2 2 3 3 2 2 1 2 3 3 3 3 2 2 3 3 3 4 3 3 3
6 7 7 7 7 6 6 5 4 3 4 4 4 5 4 3 2 2 2 2 2 2 2 2 3 2 2 2 1 2 2 3 3 4 3 3 3 4 3 4 4 4 4
6 6 6 7 6 6 5 5 4 4 4 4 5 5 5 4 3 2 1 1 1 1 1 2 2 2 1 1 1 1 1 2 3 3 3 4 3 3 3 3 4 4 4
6 6 6 6 6 5 5 5 5 5 4 4 4 4 4 4 4 3 1 1 1 1 1 1 1 1 0 0 0 0 1 1 2 2 2 2 3 3 3 3 3 3 4
6 5 6 6 5 5 4 4 4 4 4 3 3 4 4 4 4 3 2 1 2 1 1 1 1 1 1 1 2 2 2 2 2 2 2 1 2 3 3 3 3 4 4
6 5 5 5 5 4 4 3 3 3 4 4 3 3 3 3 3 4 3 2 2 2 1 1 1 1 2 2 2 2 2 2 2 2 2 2 3 3 3 3 3 4 4
7 6 5 5 4 4 4 3 3 3 3 4 4 4 4 3 3 4 3 3 2 2 2 1 1 1 1 2 1 2 2 2 2 3 3 3 3 3 4 4 4 5 5
8 7 6 5 4 4 3 3 3 3 3 4 5 5 5 5 4 4 4 4 3 3 3 2 1 2 2 2 1 2 2 3 3 3 4 4 4 4 5 5 5 5 5
8 7 7 5 5 4 4 4 4 4 4 4 5 5 5 5 5 5 5 5 4 4 3 3 3 2 2 2 2 3 3 3 3 4 4 5 5 5 5 5 5 5 6
8 8 7 6 5 5 4 4 4 5 5 5 5 5 5 5 6 6 5 5 5 5 5 4 4 4 3 3 3 3 3 3 4 4 4 5 5 5 5 5 6 6 6
8 7 7 6 5 5 4 5 5 5 5 5 5 5 6 6 6 6 6 6 6 6 5 5 5 4 5 5 5 4 4 4 5 5 6 6 5 6 6 6 6 6 7
7 7 6 6 6 6 5 5 5 6 6 5 6 6 6 6 6 6 6 6 6 6 6 6 6 5 5 6 6 6 6 5 6 6 6 6 6 6 6 7 7 8 8
7 7 7 6 6 6 6 6 6 6 6 6 7 7 7 6 7 7 7 6 6 6 6 6 6 6 6 7 7 7 7 7 7 7 7 7 7 7 8 8 8 9 9
7 7 7 7 7 6 6 6 7 7 8 8 7 7 7 7 7 7 7 6 7 7 7 7 7 7 8 7 8 9 9 8 8 8 8 8 9 9 9 9 10 10 10
8 8 8 8 7 7 7 7 8 8 8 8 8 8 8 7 8 8 7 8 8 8 8 9 9 9 9 9 10 10 10 10 10 9 9 9 10 10 11 11 11 11 11
8 8 8 8 8 8 8 9 9 9 9 10 9 8 8 9 9 10 9 9 9 10 10 10 10 10 10 11 12 12 12 12 12 10 10 11 11 11 12 11 11 12 12
9 9 9 9 10 10 10 10 10 10 10 10 10 10 10 10 10 10 10 10 10 10 10 11 11 12 12 13 13 14 13 13 12 12 13 13 12 12 12 12 13 13 13
10 10 10 11 11 11 11 11 11 11 11 11 11 11 11 11 11 11 11 11 10 11 11 11 12 13 13 14 14 14 14 14 13 14 14 14 13 13 13 14 14 15 14
11 11 11 12 12 12 11 12 12 12 12 12 12 13 13 12 12 12 13 13 12 12 12 12 12 13 14 14 14 15 15 15 14 15 15 15 14 15 15 16 16 16 17
Wind_Direction
76 85 115 118 111 119 122 127 134 138 139 135 134 134 137 131 128 129 128 125 120 116 121 126 123 115 121 121 111 113 111 107 111 110 105 96 87 79 56 67 65 76 82
76 86 101 104 105 113 119 128 139 140 138 134 135 134 133 133 135 137 134 127 119 115 122 125 120 117 124 117 108 112 113 108 113 107 101 87 75 72 50 44 50 42 37
81 84 93 95 95 103 119 129 126 133 132 134 137 140 135 132 132 140 138 130 125 122 123 124 122 117 118 116 110 104 114 130 163 150 128 95 61 62 61 64 55 46 40
78 82 88 90 87 97 107 116 123 119 129 141 140 144 138 132 128 131 129 128 127 128 127 124 113 109 113 107 102 101 96 81 80 114 117 109 57 47 52 61 72 54 48
72 78 82 76 74 90 97 102 106 106 108 123 135 136 137 132 125 128 123 123 124 123 120 114 100 104 113 107 99 92 77 87 64 57 48 54 31 33 40 55 58 47 44
69 74 72 73 76 88 92 101 100 102 98 101 115 121 122 122 125 130 124 116 116 110 104 102 105 105 104 110 101 75 65 60 64 46 36 40 35 45 56 53 40 21 24
68 72 75 76 76 85 93 93 98 100 103 100 102 99 109 111 107 106 107 108 101 99 105 105 95 102 106 106 97 76 57 46 57 31 35 30 23 32 59 50 39 22 22
63 66 71 74 78 79 82 83 92 101 100 99 90 83 96 102 107 106 107 102 93 89 95 96 92 105 108 108 99 62 47 44 40 36 39 35 37 48 47 39 30 15 10
66 65 63 64 70 77 80 82 92 100 94 82 69 75 89 97 95 98 103 92 79 62 59 74 97 109 112 106 93 57 55 47 44 45 39 44 58 49 35 34 32 21 10
60 55 55 59 66 72 79 80 83 90 85 78 71 72 74 79 76 86 103 86 83 47 40 66 84 98 106 106 116 77 44 30 35 35 33 37 40 30 29 34 29 24 22
51 53 53 59 64 65 71 74 82 84 79 71 70 66 60 55 52 57 43 45 40 43 49 57 58 35 14 305 247 278 329 342 2 13 17 12 20 13 7 9 5 5 3
46 53 54 55 58 63 68 69 67 69 66 61 60 58 53 45 37 34 8 355 30 34 35 16 360 355 325 309 304 290 296 319 338 345 348 345 350 353 348 347 350 348 345
42 50 56 57 55 53 56 59 54 56 48 44 41 45 39 27 22 19 8 4 3 4 5 349 357 340 309 307 302 302 301 312 303 304 322 328 336 338 338 335 339 340 336
39 44 43 44 49 45 44 45 42 44 38 32 27 21 18 15 9 8 1 351 350 356 2 354 318 324 315 313 311 299 305 309 313 314 318 324 332 331 331 327 326 330 331
35 33 32 31 36 35 35 33 23 20 20 24 20 10 360 356 354 356 356 345 346 347 357 347 308 310 313 308 301 285 288 302 316 319 320 319 321 322 319 316 316 314 316
33 25 21 24 21 17 17 16 13 12 6 1 3 2 354 347 346 343 348 351 344 342 338 334 319 308 305 313 309 300 302 305 307 301 306 305 309 312 312 309 311 310 310
29 24 20 21 19 15 14 10 6 359 0 2 6 4 354 350 352 351 346 348 346 341 336 328 316 306 308 314 315 309 304 304 307 301 298 300 304 305 305 307 306 307 307
23 21 21 22 22 18 14 10 5 1 0 360 359 359 355 350 347 346 347 343 341 342 337 332 323 308 305 304 303 306 307 300 297 296 296 295 298 297 300 305 302 303 307
16 16 18 18 16 13 7 0 356 354 354 352 348 348 347 343 343 342 341 340 339 338 333 326 324 319 307 301 300 302 303 297 294 294 295 293 293 293 295 297 298 298 300
8 6 4 4 5 5 4 358 352 347 344 340 337 338 335 333 333 334 331 332 330 327 322 318 312 311 304 299 298 298 296 295 293 291 293 289 291 291 290 293 295 295 296
358 357 358 354 351 353 354 353 349 343 340 334 329 327 325 321 323 326 327 323 319 311 303 306 306 301 299 297 295 295 296 297 293 294 291 292 290 288 289 291 292 290 292
356 355 354 350 347 344 341 341 338 338 336 333 329 325 324 321 322 319 315 312 309 307 301 300 303 299 296 294 291 291 293 293 293 290 291 295 294 289 288 292 291 291 291
347 348 350 345 339 336 332 332 328 326 326 330 327 323 321 319 318 314 314 312 307 303 300 298 299 300 299 298 295 293 292 290 290 288 288 291 294 292 289 290 293 294 290
339 338 335 333 329 327 325 325 324 320 319 322 320 316 315 315 315 311 307 306 305 301 298 296 296 296 297 298 297 295 295 293 289 289 289 291 292 294 293 292 293 293 293
329 327 325 325 324 322 319 317 317 318 317 315 314 310 308 309 310 309 305 302 301 301 298 295 295 297 296 296 296 295 294 290 285 288 288 289 291 292 292 293 294 292 290
320 320 321 321 320 318 315 313 311 309 310 312 312 308 304 303 303 304 304 300 299 301 302 299 298 299 298 297 295 294 291 290 287 288 286 288 289 291 291 292 294 291 292
Height
5877 5876 5876 5876 5876 5877 5877 5878 5878 5879 5880 5881 5882 5883 5884 5885 5885 5886 5887 5887 5888 5888 5889 5889 5890 5890 5890 5891 5892 5892 5893 5893 5893 5894 5894 5894 5894 5894 5894 5895 5895 5895 5895
5877 5877 5877 5877 5877 5878 5878 5879 5879 5880 5881 5882 5883 5884 5885 5886 5886 5887 5888 5888 5889 5889 5890 5890 5891 5891 5891 5892 5892 5893 5893 5894 5894 5894 5894 5894 5894 5895 5895 5895 5895 5895 5896
5879 5878 5878 5879 5879 5879 5879 5880 5880 5881 5882 5883 5884 5885 5886 5887 5887 5888 5888 5889 5889 5890 5891 5891 5891 5892 5892 5892 5893 5893 5894 5894 5894 5894 5894 5894 5894 5895 5895 5895 5896 5896 5896
5880 5880 5880 5880 5880 5880 5881 5881 5882 5883 5884 5884 5885 5886 5887 5888 5888 5889 5889 5889 5890 5891 5891 5892 5892 5892 5893 5893 5893 5894 5894 5894 5894 5894 5894 5894 5894 5895 5895 5896 5896 5896 5896
5882 5882 5882 5881 5881 5880 5881 5883 5883 5884 5885 5886 5886 5887 5888 5889 5889 5890 5890 5891 5891 5892 5892 5892 5892 5892 5893 5893 5894 5894 5894 5895 5895 5895 5895 5895 5895 5895 5896 5896 5897 5897 5897
5884 5883 5883 5882 5881 5880 5882 5884 5885 5886 5887 5887 5887 5888 5889 5890 5890 5891 5891 5892 5892 5892 5892 5893 5893 5893 5893 5894 5894 5895 5895 5895 5895 5895 5895 5895 5896 5896 5896 5896 5897 5897 5897
5886 5886 5885 5884 5884 5884 5885 5886 5887 5888 5888 5888 5889 5889 5890 5890 5891 5891 5892 5892 5893 5893 5893 5893 5893 5894 5894 5894 5895 5895 5895 5895 5895 5896 5895 5896 5896 5896 5896 5897 5897 5897 5898
5888 5888 5887 5887 5887 5888 5888 5888 5889 5889 5890 5890 5890 5891 5891 5891 5892 5892 5893 5893 5893 5893 5894 5894 5894 5894 5895 5895 5895 5896 5896 5896 5896 5896 5896 5896 5896 5897 5897 5897 5897 5898 5898
5890 5890 5889 5889 5889 5889 5890 5890 5890 5891 5891 5892 5892 5892 5892 5892 5893 5893 5893 5894 5894 5894 5894 5894 5894 5895 5895 5895 5896 5896 5896 5896 5896 5896 5896 5896 5896 5897 5897 5898 5898 5898 5898
5892 5892 5891 5891 5891 5891 5892 5892 5892 5892 5893 5893 5893 5893 5894 5894 5893 5894 5894 5894 5894 5894 5895 5895 5895 5895 5896 5896 5896 5896 5896 5896 5896 5896 5897 5896 5897 5897 5898 5898 5898 5898 5898
5893 5893 5893 5893 5893 5893 5893 5894 5894 5894 5894 5894 5894 5895 5895 5895 5895 5895 5895 5895 5895 5895 5895 5895 5896 5896 5896 5896 5896 5896 5896 5896 5897 5897 5897 5897 5897 5898 5898 5898 5898 5898 5898
5895 5895 5894 5894 5895 5895 5895 5895 5895 5896 5895 5895 5895 5895 5895 5895 5895 5895 5895 5895 5895 5895 5895 5895 5896 5896 5896 5896 5896 5896 5896 5897 5897 5897 5897 5897 5897 5897 5897 5898 5898 5898 5898
5896 5896 5896 5896 5896 5896 5896 5897 5897 5897 5897 5896 5896 5896 5896 5896 5896 5895 5895 5895 5895 5895 5895 5895 5896 5896 5896 5896 5896 5896 5896 5897 5897 5896 5897 5897 5897 5897 5897 5897 5897 5897 5897
5897 5897 5897 5897 5897 5898 5898 5898 5897 5897 5898 5897 5897 5897 5897 5897 5897 5896 5896 5895 5895 5895 5895 5895 5896 5896 5896 5896 5896 5896 5896 5897 5897 5896 5897 5897 5896 5897 5896 5897 5897 5897 5896
5899 5899 5899 5899 5898 5899 5899 5898 5898 5898 5898 5898 5898 5897 5897 5897 5897 5897 5896 5896 5896 5895 5895 5895 5895 5896 5896 5896 5896 5896 5896 5896 5896 5896 5896 5896 5896 5896 5896 5896 5896 5896 5896
5901 5900 5899 5900 5899 5899 5899 5899 5899 5899 5899 5898 5898 5898 5897 5897 5897 5897 5896 5896 5896 5895 5895 5895 5895 5895 5895 5895 5895 5895 5895 5895 5895 5896 5896 5895 5895 5895 5895 5895 5895 5895 5895
5903 5902 5901 5900 5900 5900 5900 5900 5900 5899 5899 5899 5898 5898 5898 5897 5897 5897 5896 5896 5896 5895 5895 5895 5895 5895 5895 5895 5895 5895 5895 5895 5895 5895 5895 5895 5895 5895 5895 5894 5895 5894 5894
5904 5903 5902 5902 5901 5901 5901 5901 5900 5900 5899 5899 5899 5898 5898 5897 5897 5896 5896 5896 5895 5895 5895 5895 5894 5894 5894 5894 5894 5894 5894 5894 5894 5894 5894 5894 5894 5894 5894 5894 5893 5893 5893
5905 5904 5903 5903 5902 5902 5901 5901 5901 5900 5899 5899 5899 5898 5898 5897 5897 5896 5896 5896 5895 5895 5894 5894 5894 5894 5894 5893 5893 5893 5893 5893 5893 5893 5892 5892 5892 5892 5892 5892 5892 5892 5891
5906 5905 5904 5904 5903 5902 5902 5902 5901 5901 5900 5899 5899 5898 5897 5897 5896 5896 5895 5895 5895 5894 5894 5894 5893 5893 5893 5892 5892 5892 5892 5892 5892 5891 5891 5891 5891 5891 5891 5891 5890 5890 5890
5906 5905 5905 5904 5903 5903 5903 5902 5901 5901 5900 5899 5898 5898 5897 5897 5896 5895 5895 5894 5894 5893 5893 5893 5892 5892 5892 5891 5891 5891 5891 5890 5890 5890 5889 5889 5889 5889 5889 5889 5888 5888 5888
5906 5906 5905 5904 5903 5903 5902 5902 5901 5900 5899 5898 5898 5897 5896 5896 5895 5894 5894 5893 5893 5892 5892 5891 5891 5891 5890 5889 5889 5889 5889 5889 5888 5888 5887 5887 5887 5886 5886 5886 5886 5886 5886
5906 5906 5905 5904 5903 5902 5902 5901 5900 5899 5898 5898 5897 5896 5896 5895 5894 5893 5892 5892 5891 5891 5890 5890 5889 5889 5888 5888 5887 5887 5887 5886 5886 5886 5885 5885 5885 5884 5884 5884 5883 5883 5883
5906 5905 5904 5904 5903 5902 5901 5900 5899 5898 5898 5897 5896 5895 5894 5893 5893 5892 5891 5890 5889 5889 5888 5888 5887 5887 5886 5886 5885 5885 5884 5883 5883 5883 5883 5882 5882 5881 5881 5881 5880 5880 5879
5905 5904 5903 5902 5901 5900 5899 5898 5898 5897 5896 5895 5894 5893 5893 5892 5891 5890 5889 5888 5887 5886 5886 5885 5885 5884 5883 5883 5882 5882 5881 5880 5880 5880 5879 5879 5878 5878 5878 5877 5877 5876 5876
5903 5902 5902 5901 5900 5899 5898 5897 5896 5895 5894 5893 5892 5891 5891 5890 5889 5888 5887 5886 5885 5884 5884 5883 5882 5881 5881 5880 5879 5878 5878 5877 5877 5876 5876 5875 5875 5875 5874 5874 5873 5872 5872